Wind_Speed
60 59 57 56 52 54 59 60 61 62 61 60 60 60 57 56 53 55 55 55 54 53 54 57 57 58 59 62 65 63 64 63
65 62 64 62 62 62 60 59 60 59 60 59 57 56 56 56 59 60 60 60 60 62 64 64 65 67 66 66 68 66 66 68
66 66 66 67 67 67 68 69 69 69 66 64 62 61 61 63 62 61 61 62 63 66 65 65 64 65 66 68 70 72 75 78
69 71 67 70 71 70 71 73 74 75 75 75 72 71 70 67 67 68 68 66 64 66 67 68 70 73 74 75 78 79 82 85
68 71 67 72 75 73 74 74 74 78 78 77 77 76 75 75 75 74 76 76 77 76 75 77 79 81 83 84 86 88 89 92
81 80 78 76 75 74 76 77 78 78 76 76 76 77 78 77 77 76 76 76 78 82 83 83 83 84 86 89 91 93 95 98
86 87 87 86 84 83 79 79 81 83 83 81 79 81 81 80 80 83 82 83 84 84 85 87 89 91 93 94 92 95 96 98
94 93 95 92 91 90 90 89 85 86 85 85 85 87 84 88 90 89 86 88 90 91 90 92 95 97 98 99 100 104 106 107
98 98 96 96 98 98 98 98 93 94 93 94 93 97 94 94 97 96 94 94 96 99 100 105 100 105 105 102 104 108 112 112
103 101 104 105 107 107 105 103 99 99 98 101 103 104 103 103 103 103 103 103 104 104 105 103 101 107 106 110 107 111 113 115
113 112 111 110 112 113 113 113 112 109 105 106 109 110 108 109 110 111 108 109 109 111 110 108 109 111 113 116 114 114 118 115
118 120 121 119 120 116 119 119 115 116 116 119 120 118 116 112 111 115 116 117 117 113 115 114 114 120 120 119 118 118 116 122
118 127 122 126 122 125 126 128 128 127 130 129 131 129 123 122 121 120 120 119 121 120 121 121 117 120 121 121 120 121 122 118
105 110 114 128 129 132 134 133 132 132 130 131 125 129 127 126 128 126 125 126 125 123 124 125 123 119 117 125 123 117 106 104
93 96 101 109 112 115 129 135 139 134 128 128 126 130 131 130 131 133 134 133 131 129 127 127 130 130 119 115 107 104 92 85
88 88 92 95 99 103 108 115 117 117 118 117 120 119 122 122 124 126 127 125 126 129 129 127 116 120 111 95 91 88 84 87
82 83 85 87 91 93 95 98 101 105 106 107 108 110 114 116 119 119 121 117 113 113 113 109 103 94 83 79 82 89 74 73
74 75 76 79 83 84 86 88 90 93 95 96 96 98 101 103 103 105 104 102 98 94 90 87 80 75 71 72 71 67 69 76
71 70 70 71 74 76 77 79 79 83 82 84 83 87 88 87 87 85 83 80 78 75 73 71 68 68 66 68 68 73 77 81
Wind_Direction
270 272 271 271 273 269 265 266 266 268 270 273 273 274 274 273 271 269 269 272 275 275 276 277 280 284 284 286 288 288 288 288
274 273 271 269 268 267 268 267 264 266 267 268 269 269 270 272 273 272 271 269 273 276 279 283 283 284 285 285 284 283 284 284
270 271 271 270 269 269 268 269 270 270 270 271 271 272 272 273 271 272 274 274 277 278 279 280 280 280 282 283 284 285 284 285
267 268 269 270 270 270 269 269 269 270 272 273 273 275 272 271 271 274 275 276 275 277 278 280 281 281 282 281 282 283 283 284
268 271 268 270 270 269 269 269 269 269 269 270 271 272 272 272 273 276 278 280 280 280 279 279 280 282 282 283 283 283 284 284
265 265 265 268 269 269 269 268 268 268 269 269 271 272 272 274 274 275 276 277 277 277 279 281 282 281 282 283 285 285 284 285
263 265 266 265 268 268 269 270 271 271 269 268 269 271 271 272 273 274 277 277 278 278 278 279 279 280 279 281 283 284 285 286
268 268 264 265 266 267 267 268 269 271 272 271 269 272 273 273 274 274 276 277 278 280 279 282 280 281 281 281 286 289 290 290
263 265 265 264 264 263 264 265 266 267 269 269 271 273 273 273 275 277 278 279 280 282 282 285 285 282 282 285 288 289 290 291
258 263 262 264 265 265 264 263 264 265 267 269 269 269 270 272 273 275 275 276 277 279 281 284 287 286 287 289 290 292 292 294
252 253 256 260 261 261 262 263 265 264 266 268 268 267 267 270 270 272 273 274 275 276 278 281 282 284 284 285 288 289 290 291
250 251 251 253 252 258 259 261 263 263 266 269 268 268 266 266 268 268 269 272 274 275 276 277 281 282 283 286 287 287 288 289
257 251 251 250 252 253 256 258 260 263 266 268 269 267 265 267 267 268 270 270 272 275 276 278 279 282 285 285 287 286 289 287
253 253 252 253 253 253 253 255 256 261 265 265 264 265 265 267 267 267 270 271 271 272 273 277 281 282 282 284 282 285 282 281
258 254 254 253 253 253 253 254 255 257 261 261 262 262 263 267 267 268 269 272 271 273 274 277 277 278 281 280 282 280 275 274
263 260 257 256 256 255 255 256 256 258 259 261 261 262 264 266 269 270 270 273 272 272 275 278 277 277 280 277 269 268 268 268
261 260 260 260 259 258 257 256 258 259 257 259 262 262 262 265 267 268 269 272 273 274 274 276 276 274 270 263 265 260 265 270
262 259 256 256 256 257 259 258 257 258 258 259 259 261 263 264 265 266 268 269 270 271 270 270 268 264 261 261 265 265 264 265
265 264 261 257 255 255 257 257 256 256 257 258 257 258 259 259 260 263 264 263 263 262 260 260 258 260 257 259 260 261 262 267
Height
10653 10656 10656 10656 10657 10655 10653 10653 10654 10655 10656 10657 10657 10657 10657 10657 10656 10653 10653 10654 10654 10654 10653 10652 10651 10651 10650 10649 10647 10645 10643 10641
10641 10644 10641 10643 10643 10644 10643 10643 10641 10642 10642 10643 10644 10644 10644 10645 10644 10640 10640 10640 10641 10640 10639 10639 10638 10637 10636 10635 10634 10632 10630 10628
10628 10627 10628 10627 10627 10630 10629 10629 10630 10629 10629 10629 10629 10630 10630 10630 10629 10627 10627 10628 10627 10626 10625 10624 10623 10621 10620 10619 10617 10616 10614 10611
10613 10610 10616 10612 10611 10614 10614 10614 10614 10612 10612 10612 10613 10613 10613 10614 10614 10614 10614 10615 10614 10612 10610 10608 10606 10604 10602 10600 10599 10597 10595 10592
10598 10593 10600 10597 10595 10598 10597 10597 10598 10595 10597 10595 10594 10594 10596 10596 10596 10598 10598 10599 10599 10597 10596 10593 10589 10585 10582 10581 10579 10576 10575 10571
10578 10574 10577 10583 10579 10580 10579 10581 10581 10578 10579 10579 10578 10575 10576 10579 10578 10577 10579 10582 10580 10579 10578 10575 10572 10568 10563 10560 10559 10555 10551 10548
10559 10558 10554 10557 10560 10560 10562 10562 10561 10560 10560 10560 10561 10556 10557 10558 10557 10556 10560 10560 10557 10556 10556 10554 10552 10548 10544 10540 10538 10533 10529 10525
10533 10534 10535 10535 10537 10538 10537 10539 10540 10537 10540 10540 10540 10535 10538 10536 10534 10536 10539 10537 10537 10534 10531 10530 10528 10524 10521 10519 10515 10511 10506 10502
10507 10510 10507 10510 10510 10515 10512 10514 10517 10515 10517 10515 10520 10515 10517 10512 10510 10514 10515 10514 10513 10508 10507 10501 10502 10498 10497 10497 10493 10488 10483 10478
10478 10482 10483 10480 10480 10481 10486 10485 10491 10492 10490 10492 10494 10492 10494 10492 10491 10491 10493 10492 10490 10488 10486 10483 10480 10471 10470 10465 10461 10457 10452 10447
10446 10448 10452 10453 10451 10453 10457 10457 10458 10461 10462 10462 10464 10465 10471 10472 10469 10467 10469 10465 10466 10465 10465 10463 10459 10454 10450 10445 10442 10439 10434 10429
10411 10413 10417 10421 10423 10423 10425 10428 10431 10428 10433 10433 10432 10436 10438 10443 10444 10442 10440 10442 10438 10443 10442 10439 10436 10430 10424 10424 10419 10417 10411 10408
10374 10380 10382 10384 10389 10393 10395 10397 10399 10399 10400 10399 10401 10403 10405 10409 10412 10411 10413 10417 10415 10417 10417 10411 10414 10405 10405 10399 10396 10391 10390 10383
10339 10344 10345 10352 10354 10354 10358 10362 10369 10371 10369 10368 10368 10371 10372 10375 10377 10380 10385 10387 10388 10390 10388 10387 10389 10381 10382 10376 10371 10370 10365 10359
10302 10307 10309 10313 10319 10323 10324 10331 10335 10339 10337 10338 10339 10342 10345 10345 10346 10348 10352 10353 10356 10359 10362 10361 10360 10358 10356 10353 10350 10344 10340 10336
10264 10270 10277 10282 10287 10292 10297 10299 10303 10306 10310 10311 10312 10315 10316 10316 10316 10317 10320 10321 10327 10328 10328 10327 10328 10331 10329 10327 10324 10323 10319 10317
10234 10238 10244 10249 10253 10259 10266 10270 10272 10273 10278 10284 10286 10288 10289 10290 10290 10291 10293 10294 10295 10297 10297 10300 10302 10302 10303 10304 10301 10301 10299 10298
10206 10212 10217 10223 10226 10230 10235 10241 10245 10247 10251 10257 10261 10263 10263 10264 10264 10266 10269 10270 10272 10273 10273 10275 10278 10280 10281 10281 10280 10280 10280 10278
10182 10186 10191 10196 10201 10206 10211 10214 10219 10221 10227 10231 10236 10237 10240 10241 10242 10245 10247 10248 10250 10252 10254 10257 10258 10260 10260 10262 10262 10262 10259 10257